RESURS-P 4

Last updated on Mon Sep 15 2025 00:02:31 GMT+0000 (Coordinated Universal Time)

1 59371U 24061A 25257.26878324 .00003304 00000+0 10682-3 0 9998 2 59371 97.2383 205.4260 0000705 88.4684 271.6639 15.32770487 81500
UTC large
Height (km)
Speed (km/s)
/
Latitude / Longitude
Inclination (degrees)
Orbital Period (minutes)
Azimuth
Elevation
Range (km)
Doppler Factor

Next 0 passes for location: London (51.5072 / 0.1276)

Sorry there are no passes over London.